Simultaneous Nadir Overpasses (SNOs) Predictions

Prediction of SNOs between GOES-17 and METOP-C Satellite Orbit:

Table of predicted SNOs for the next 14.0 days since TLE Epoch: 8/29/2025
Index Date Time (GOES-17) GOES-17 Lat,Lon METOP-C Lat,Lon Distance(km) Time Diff (sec)
1 08/30/2025 03:43:23 -0.09, -89.49 -0.76, -92.56 348.76 80
2 08/31/2025 03:20:04 -0.08, -89.50 0.33, -87.56 220.57 80
3 09/01/2025 15:41:37 0.10, -89.55 0.65, -92.13 293.32 80
4 09/02/2025 15:18:18 0.09, -89.55 -0.43, -87.13 275.91 80
5 09/04/2025 03:39:58 -0.11, -89.52 -0.60, -91.72 250.86 80
6 09/05/2025 03:16:39 -0.09, -89.53 0.55, -86.74 318.69 80
7 09/06/2025 15:38:12 0.12, -89.59 0.48, -91.30 194.46 80
8 09/07/2025 15:14:52 0.10, -89.60 -0.61, -86.30 375.25 80
9 09/09/2025 03:36:33 -0.12, -89.57 -0.41, -90.89 150.80 80
10 09/10/2025 03:13:14 -0.10, -89.58 0.75, -85.91 419.21 80
11 09/11/2025 15:34:45 0.13, -89.64 0.34, -90.45 93.37 80
12 09/12/2025 15:11:27 0.11, -89.65 -0.82, -85.47 476.56 80
